Columbus, OH

6:42 PM EDT on April 25, 2017 (GMT -0400)
Port Columbus International

Weather History for KCMH - April, 2013

Change the Weather History Date:

Thursday, April 18, 2013

  Actual Average Record
Temperature  
Mean Temperature 74 °F 54 °F  
Max Temperature 86 °F 65 °F 89 °F (1896)
Min Temperature 61 °F 43 °F 22 °F (1953)
Degree Days  
Heating Degree Days 0 11  
Month to date heating degree days 207 257  
Since 1 July heating degree days 4916 4968  
Cooling Degree Days 9 0  
Month to date cooling degree days 23 0  
Year to date cooling degree days 23 0  
Growing Degree Days 24 (Base 50)    
Moisture  
Dew Point 57 °F    
Average Humidity 61    
Maximum Humidity 90    
Minimum Humidity 32    
Precipitation  
Precipitation 0.00 in 0.11 in 1.61 in (1885)
Month to date precipitation 1.83 2.03  
Year to date precipitation 9.02 10.03  
Snow  
Snow 0.00 in 0.10 in 4.10 in (1953)
Month to date snowfall T 1.0  
Since 1 July snowfall 41.2 26.6  
Snow Depth 0.00 in    
Sea Level Pressure  
Sea Level Pressure 29.83 in    
Wind  
Wind Speed 15 mph (South)    
Max Wind Speed 35 mph    
Max Gust Speed 43 mph    
Visibility 10 miles    
Events      
T = Trace of Precipitation, MM = Missing Value Source: NWS Daily Summary

Daily Weather History Graph

Daily Weather History Graph

Search for Another Location

Airport or City:

Trip Planner

Search our weather history database for the weather conditions in past years. The results will help you decide how hot, cold, wet, or windy it might be!

Date:

Astronomy

Apr. 18, 2013 Rise Set
Actual Time 6:48 AM EDT 8:13 PM EDT
Civil Twilight 6:20 AM EDT 8:41 PM EDT
Nautical Twilight 5:46 AM EDT 9:15 PM EDT
Astronomical Twilight 5:11 AM EDT 9:51 PM EDT
Moon 12:59 PM EDT (4/18) 2:27 AM EDT (4/18)
Length of Visible Light 14h 21m
Length of Day
13h 24m
First Quarter, 51% of the Moon is Illuminated
Apr 18
First Quarter
Apr 25
Full
May 2
Last Quarter
May 9
New
May 18
First Quarter

Hourly Weather History & Observations

Time (EDT) Temp. Heat Index Dew Point Humidity Pressure Visibility Wind Dir Wind Speed Gust Speed Precip Events Conditions
12:51 AM 62.1 °F - 57.9 °F 86% 30.00 in 9.0 mi ESE 11.5 mph - N/A   Mostly Cloudy
1:51 AM 62.1 °F - 57.9 °F 86% 29.98 in 9.0 mi SE 10.4 mph - N/A   Scattered Clouds
2:51 AM 61.0 °F - 57.9 °F 90% 29.94 in 9.0 mi SE 11.5 mph - N/A   Scattered Clouds
3:51 AM 61.0 °F - 57.9 °F 90% 29.92 in 10.0 mi SE 10.4 mph - N/A   Partly Cloudy
4:51 AM 61.0 °F - 57.0 °F 87% 29.91 in 10.0 mi SE 9.2 mph - N/A   Scattered Clouds
5:51 AM 61.0 °F - 57.0 °F 87% 29.91 in 10.0 mi SE 5.8 mph - N/A   Scattered Clouds
6:51 AM 62.1 °F - 55.9 °F 80% 29.92 in 10.0 mi SSE 9.2 mph - N/A   Mostly Cloudy
7:51 AM 64.0 °F - 57.0 °F 78% 29.91 in 10.0 mi SSE 9.2 mph - N/A   Mostly Cloudy
8:51 AM 68.0 °F - 57.9 °F 70% 29.91 in 10.0 mi South 11.5 mph - N/A   Overcast
9:51 AM 69.1 °F - 57.9 °F 68% 29.91 in 10.0 mi South 19.6 mph 24.2 mph N/A   Mostly Cloudy
10:51 AM 72.0 °F - 60.1 °F 66% 29.89 in 10.0 mi South 17.3 mph 24.2 mph N/A   Partly Cloudy
11:51 AM 77.0 °F - 62.6 °F 61% 29.88 in 10.0 mi South 19.6 mph 25.3 mph N/A   Scattered Clouds
12:51 PM 80.1 °F 80.9 °F 60.1 °F 50% 29.84 in 10.0 mi SSW 21.9 mph 35.7 mph N/A   Scattered Clouds
1:51 PM 82.9 °F 82.8 °F 59.0 °F 44% 29.81 in 10.0 mi South 24.2 mph 36.8 mph N/A   Mostly Cloudy
2:51 PM 82.9 °F 82.1 °F 55.9 °F 39% 29.79 in 10.0 mi SSW 20.7 mph 31.1 mph N/A   Mostly Cloudy
3:51 PM 84.9 °F 83.6 °F 55.0 °F 36% 29.76 in 10.0 mi SSW 26.5 mph 33.4 mph N/A   Mostly Cloudy
4:51 PM 84.9 °F - 52.0 °F 32% 29.74 in 10.0 mi SW 21.9 mph 36.8 mph N/A   Mostly Cloudy
5:51 PM 84.0 °F 82.5 °F 53.1 °F 34% 29.73 in 10.0 mi SSW 24.2 mph 34.5 mph N/A   Mostly Cloudy
6:51 PM 82.0 °F 81.2 °F 53.1 °F 37% 29.72 in 10.0 mi SSW 16.1 mph 23.0 mph N/A   Mostly Cloudy
7:51 PM 79.0 °F - 53.1 °F 40% 29.70 in 10.0 mi South 11.5 mph - N/A   Overcast
8:51 PM 77.0 °F - 55.0 °F 47% 29.69 in 10.0 mi South 11.5 mph - N/A   Overcast
9:51 PM 77.0 °F - 54.0 °F 45% 29.68 in 10.0 mi South 11.5 mph - N/A   Overcast
10:51 PM 75.9 °F - 54.0 °F 46% 29.67 in 10.0 mi South 13.8 mph - N/A   Overcast
11:51 PM 75.0 °F - 55.0 °F 50% 29.65 in 10.0 mi South 11.5 mph - N/A   Overcast